Date String (YYYY-MM-DD hh:mm:ss) UTC,Instrument flags,absolute air pressure of the measurement (hPa),sample flow rate (lpm),inlet stack bypass flow (lpm),air temperature of the measurement (°C),ambient temperature measured by the external sensor (°C),aerosol sample conditioner tube jacket temperature (°C),OPC LED temperature (°C),internal box temperature (°C),relative humidity of the measurement (%),span deviation,mass concentration of particles derived from Lorenz-Mie calculation of OPC scattering (μg/m³),mass concentration of particles derived from Lorenz-Mie calculation of OPC scattering (μg/m³),mass concentration of particles derived from Lorenz-Mie calculation of OPC scattering (μg/m³)
DateTimeUTC,F1_M11,P_M11,Q1_M11,Q2_M11,T1_M11,T2_M11,T3_M11,T4_M11,T5_M11,U1_M11,ZSPAN_M11,X0_M11,X2_M11,X1_M11
2023-08-16 16:00:00,SystemResetWarning,0833.7,4.99,000.00,028.8,026.8,000.0,037.0,030.4,23.6,0000.0,0011.08,0004.21,0003.69
2023-08-16 16:01:00,SystemResetWarning,0833.7,4.99,000.00,028.8,025.7,000.0,036.9,030.1,23.9,0000.0,0010.84,0004.18,0003.69
2023-08-16 16:02:00,SystemResetWarning,0833.6,5.02,000.00,028.7,025.3,000.0,036.8,030.0,24.0,0000.0,0011.05,0004.19,0003.68
2023-08-16 16:03:00,SystemResetWarning,0833.6,5.00,000.00,028.7,025.7,000.0,036.8,030.1,23.9,0000.0,0010.73,0004.18,0003.68
2023-08-16 16:04:00,SystemResetWarning,0833.6,5.00,000.00,028.7,026.1,000.0,036.9,030.2,24.5,0000.0,0010.36,0004.18,0003.67
2023-08-16 16:05:00,SystemResetWarning,0833.6,5.00,000.00,028.7,026.5,000.0,036.9,030.3,25.2,0000.0,0010.28,0004.16,0003.66
2023-08-16 16:06:00,SystemResetWarning,0833.6,5.00,000.00,028.8,026.9,000.0,037.0,030.4,23.5,0000.0,0010.21,0004.10,0003.64
2023-08-16 16:07:00,SystemResetWarning,0833.6,5.00,000.00,028.8,026.7,000.0,036.9,030.5,23.4,0000.0,0010.31,0004.11,0003.63
2023-08-16 16:08:00,SystemResetWarning,0833.6,4.98,000.00,028.8,025.7,000.0,036.9,030.1,23.3,0000.0,0010.31,0004.11,0003.62
2023-08-16 16:09:00,SystemResetWarning,0833.6,5.01,000.00,028.7,025.4,000.0,036.8,030.0,23.8,0000.0,0009.73,0004.09,0003.61
2023-08-16 16:10:00,SystemResetWarning,0833.6,5.01,000.00,028.7,025.8,000.0,036.8,030.1,23.8,0000.0,0008.32,0004.06,0003.60
2023-08-16 16:11:00,SystemResetWarning,0833.6,4.99,000.00,028.7,026.1,000.0,036.9,030.2,24.0,0000.0,0008.16,0004.03,0003.58
2023-08-16 16:12:00,SystemResetWarning,0833.7,4.99,000.00,028.7,026.6,000.0,036.9,030.3,24.8,0000.0,0008.13,0004.02,0003.58
2023-08-16 16:13:00,SystemResetWarning,0833.7,5.00,000.00,028.8,026.8,000.0,036.9,030.4,24.7,0000.0,0007.77,0004.01,0003.56
2023-08-16 16:14:00,SystemResetWarning,0833.7,5.00,000.00,028.7,025.8,000.0,036.9,030.2,24.6,0000.0,0007.47,0004.00,0003.55
2023-08-16 16:15:00,SystemResetWarning,0833.6,5.01,000.00,028.7,025.0,000.0,036.8,030.0,24.6,0000.0,0007.47,0004.00,0003.55
2023-08-16 16:16:00,SystemResetWarning,0833.6,5.01,000.00,028.6,025.3,000.0,036.8,030.0,24.1,0000.0,0007.20,0004.00,0003.55
2023-08-16 16:17:00,SystemResetWarning,0833.6,4.99,000.00,028.6,025.7,000.0,036.8,030.0,23.6,0000.0,0007.35,0003.99,0003.54
2023-08-16 16:18:00,SystemResetWarning,0833.6,5.00,000.00,028.6,026.1,000.0,036.9,030.1,23.7,0000.0,0007.31,0003.99,0003.55
2023-08-16 16:19:00,SystemResetWarning,0833.6,5.01,000.00,028.6,026.5,000.0,036.9,030.2,24.4,0000.0,0007.35,0004.00,0003.55
2023-08-16 16:20:00,SystemResetWarning,0833.6,5.00,000.00,028.7,026.9,000.0,036.9,030.3,23.4,0000.0,0007.31,0003.99,0003.55
2023-08-16 16:21:00,SystemResetWarning,0833.6,4.99,000.00,028.7,026.5,000.0,036.9,030.1,23.6,0000.0,0007.31,0004.00,0003.56
2023-08-16 16:22:00,SystemResetWarning,0833.6,5.00,000.00,028.6,025.3,000.0,036.8,029.9,24.0,0000.0,0007.34,0004.01,0003.57
2023-08-16 16:23:00,SystemResetWarning,0833.6,5.02,000.00,028.6,025.2,000.0,036.7,029.9,24.1,0000.0,0007.48,0004.04,0003.57
2023-08-16 16:24:00,SystemResetWarning,0833.6,4.99,000.00,028.5,025.6,000.0,036.7,030.0,24.1,0000.0,0007.41,0004.02,0003.58
2023-08-16 16:25:00,SystemResetWarning,0833.6,5.00,000.00,028.5,026.0,000.0,036.8,030.1,24.3,0000.0,0007.16,0003.97,0003.57
2023-08-16 16:26:00,SystemResetWarning,0833.6,5.01,000.00,028.6,026.4,000.0,036.8,030.2,24.5,0000.0,0006.92,0003.94,0003.57
2023-08-16 16:27:00,SystemResetWarning,0833.6,5.00,000.00,028.6,026.8,000.0,036.9,030.3,24.3,0000.0,0006.98,0003.95,0003.57
2023-08-16 16:28:00,SystemResetWarning,0833.6,5.00,000.00,028.7,026.9,000.0,036.9,030.3,23.6,0000.0,0006.58,0003.98,0003.58
2023-08-16 16:29:00,SystemResetWarning,0833.6,4.98,000.00,028.6,025.8,000.0,036.8,030.0,23.7,0000.0,0006.67,0004.01,0003.59
2023-08-16 16:30:00,SystemResetWarning,0833.6,5.01,000.00,028.6,025.1,000.0,036.7,029.9,23.9,0000.0,0006.72,0004.02,0003.59
2023-08-16 16:31:00,SystemResetWarning,0833.6,5.01,000.00,028.5,025.4,000.0,036.7,029.9,24.7,0000.0,0007.49,0004.05,0003.59
2023-08-16 16:32:00,SystemResetWarning,0833.6,5.00,000.00,028.5,025.7,000.0,036.7,030.0,25.5,0000.0,0007.60,0004.07,0003.60
2023-08-16 16:33:00,SystemResetWarning,0833.6,4.99,000.00,028.5,026.2,000.0,036.8,030.1,24.9,0000.0,0007.68,0004.06,0003.60
2023-08-16 16:34:00,SystemResetWarning,0833.6,5.00,000.00,028.6,026.6,000.0,036.8,030.2,24.5,0000.0,0008.03,0004.05,0003.60
2023-08-16 16:35:00,SystemResetWarning,0833.5,5.01,000.00,028.6,026.9,000.0,036.8,030.3,24.2,0000.0,0008.18,0004.05,0003.60
2023-08-16 16:36:00,SystemResetWarning,0833.6,4.99,000.00,028.7,027.0,000.0,036.8,030.3,24.0,0000.0,0009.21,0004.06,0003.61
2023-08-16 16:37:00,SystemResetWarning,0833.5,4.99,000.00,028.6,025.9,000.0,036.8,030.1,24.6,0000.0,0009.23,0004.06,0003.62
2023-08-16 16:38:00,SystemResetWarning,0833.5,5.02,000.00,028.6,025.1,000.0,036.7,030.0,24.9,0000.0,0009.17,0004.07,0003.61
2023-08-16 16:39:00,SystemResetWarning,0833.6,5.00,000.00,028.6,025.5,000.0,036.7,030.0,23.9,0000.0,0009.19,0004.08,0003.61
2023-08-16 16:40:00,SystemResetWarning,0833.5,5.00,000.00,028.5,025.8,000.0,036.7,030.0,24.3,0000.0,0009.17,0004.08,0003.61
2023-08-16 16:41:00,SystemResetWarning,0833.6,5.00,000.00,028.6,026.3,000.0,036.8,030.1,24.0,0000.0,0009.19,0004.09,0003.62
2023-08-16 16:42:00,SystemResetWarning,0833.5,5.01,000.00,028.6,026.7,000.0,036.8,030.3,23.8,0000.0,0008.91,0004.06,0003.62
2023-08-16 16:43:00,SystemResetWarning,0833.6,4.99,000.00,028.6,027.0,000.0,036.8,030.3,23.8,0000.0,0008.58,0004.05,0003.62
2023-08-16 16:44:00,SystemResetWarning,0833.5,4.99,000.00,028.7,026.4,000.0,036.8,030.2,23.6,0000.0,0008.67,0004.08,0003.63
2023-08-16 16:45:00,SystemResetWarning,0833.4,5.00,000.00,028.6,025.2,000.0,036.7,029.9,24.5,0000.0,0009.10,0004.06,0003.63
2023-08-16 16:46:00,SystemResetWarning,0833.4,5.02,000.00,028.5,025.2,000.0,036.7,029.9,24.3,0000.0,0008.78,0004.07,0003.63
2023-08-16 16:47:00,SystemResetWarning,0833.4,4.99,000.00,028.5,025.6,000.0,036.7,029.9,24.6,0000.0,0008.19,0004.08,0003.62
2023-08-16 16:48:00,SystemResetWarning,0833.4,5.00,000.00,028.5,026.0,000.0,036.7,030.0,24.4,0000.0,0007.82,0004.09,0003.63
2023-08-16 16:49:00,SystemResetWarning,0833.4,5.01,000.00,028.5,026.4,000.0,036.8,030.2,23.6,0000.0,0007.78,0004.07,0003.64
2023-08-16 16:50:00,SystemResetWarning,0833.4,4.99,000.00,028.6,026.8,000.0,036.8,030.3,23.6,0000.0,0007.65,0004.04,0003.64
2023-08-16 16:51:00,SystemResetWarning,0833.4,4.99,000.00,028.6,027.1,000.0,036.9,030.4,23.8,0000.0,0007.56,0004.02,0003.66
2023-08-16 16:52:00,SystemResetWarning,0833.4,5.00,000.00,028.7,026.5,000.0,036.8,030.2,23.6,0000.0,0007.46,0004.00,0003.66
2023-08-16 16:53:00,SystemResetWarning,0833.5,5.00,000.00,028.6,025.2,000.0,036.7,030.0,23.6,0000.0,0008.11,0004.01,0003.67
2023-08-16 16:54:00,SystemResetWarning,0833.4,5.01,000.00,028.6,025.3,000.0,036.7,030.0,23.4,0000.0,0008.51,0004.02,0003.68
2023-08-16 16:55:00,SystemResetWarning,0833.4,5.00,000.00,028.5,025.7,000.0,036.7,030.0,23.4,0000.0,0008.61,0004.00,0003.68
2023-08-16 16:56:00,SystemResetWarning,0833.4,5.00,000.00,028.5,026.1,000.0,036.8,030.1,24.0,0000.0,0007.83,0003.99,0003.69
2023-08-16 16:57:00,SystemResetWarning,0833.4,5.00,000.00,028.6,026.5,000.0,036.8,030.2,23.9,0000.0,0008.20,0004.01,0003.71
2023-08-16 16:58:00,SystemResetWarning,0833.4,4.99,000.00,028.6,026.9,000.0,036.8,030.3,23.9,0000.0,0008.58,0004.03,0003.71
2023-08-16 16:59:00,SystemResetWarning,0833.4,5.00,000.00,028.7,027.2,000.0,036.9,030.4,23.6,0000.0,0008.60,0004.02,0003.71
